CZ-3B DEB, 40845

Orbit data source: Space-Track

CZ-3B DEB, 40845 is space debris in HEO originally from a launch on Mon, 19 Dec 2011 UTC launched from the Xichang Space Center, China (XSC). Debris objects in space refer to the collection of defunct objects orbiting the Earth. Examples of debris include non-operational satellites, rocket bodies, and fragments generated from explosions, collisions, or faulty payload assembly.

Not visible in the next 10 days
Identifier
40845, 2011-077AA
Orbit
HEO
Country
Flag of CNCN / PRC
Related business
Manufacturer
CALT
Mission
Spacecraft
Bus & Motor
Unknown
Mass
Unknown
Launch date (UTC)
2011-12-19 (14 years ago)
Launch vehicle
Unknown
Launch site
Xichang Space Center, China (XSC)
Object type
Payload
Rocket body
Debris
Shape & HBR
Unknown shape, 0.2 m
Radar Cross Section
Medium (>0.1 m² and <1 m²)

Expand to show TLE details & history
Last TLE update: 1 day ago

TLE from 1 day ago
0 CZ-3B DEB
1 40845U 11077AA  26033.28934350  .00012620  00000-0  12236-1 0  9991
2 40845  21.4017 182.3900 7428036 110.2362 338.3132  2.06969914 89518
Epoch: 2026-02-02T06:56Z
TLE epoch observation values (Epoch: 2026-02-02T06:56:39.278Z)
Latitude
0.00001°
Longitude
-54.43837°
Altitude
9,312.588 km
Speed
5.956 km/s
True Right ascension
12h 08m 50s
True Declination
0° 00' 00"
Sunlit
Object was in daylight at epoch
Visualization orbit readout
Latitude
Unknown
Longitude
Unknown
Altitude
Unknown
Speed
Unknown
Apparent Right ascension
Unknown
Apparent Declination
Unknown
Sunlit
N/A
Visualization observer readout
Local Sidereal Time
17:02:33
Azimuth
Unknown
Elevation
Unknown
Doppler factor
Unknown
Orbital elements
Apogee altitude
38,959.04 km
Perigee altitude
312.553 km
Semi-major axis
26,013.934 km
Eccentricity
0.7428
Inclination
21.4017°
RAAN
182.39°
Arg. of periapsis
110.2362°
True anomaly
249.85127°
Mean anomaly
338.3132°
Eccentric anomaly
302.36515°
Mean motion
0.51729 °/min
Orbital period
695.93 mins
BSTAR
0.012236
Loading maneuver chart data...
Computing Atmospheric mass density...
Loading historical data...
Loading historical data...
Loading historical data...
Loading historical data...
Loading historical data...
Loading historical data...
Loading historical data...

Documentation

Showing up to 5 results
|